Regional Weather Roundup
Issued by NWS

Home | Current Version | Previous Version | Text Only | Print | Product List | Glossary On
Versions: 1 2 3 4 5 6 7 8 9 10 11 12 13 14 15 16 17 18 19 20 21 22 23 24 25 26 27 28 29 30 31 32 33 34 35 36 37 38 39 40 41 42 43 44 45 46 47 48 49 50
844
ASUS43 KTOP 241008
RWRKS

WEATHER ROUNDUP FOR KANSAS
NATIONAL WEATHER SERVICE GOODLAND KS
500 AM CDT MON APR 24 2017

NOTE:  "FAIR" INDICATES FEW OR NO CLOUDS BELOW 12,000 FEET WITH NO
SIGNIFICANT WEATHER AND/OR OBSTRUCTIONS TO VISIBILITY.

KSZ001>006-013>018-027>032-041>047-241100-
NORTHWEST KANSAS

CITY           SKY/WX    TMP DP  RH WIND       PRES   REMARKS
GOODLAND       CLOUDY    50  39  66 S20       29.53F
HAYS           CLOUDY    54  35  48 S24G33    29.67F
HILL CITY      CLOUDY    53  37  54 S16G23    29.63F
RUSSELL        CLOUDY    52  36  54 S31G38    29.69F
$$

KSZ061>065-074>080-084>089-241100-
SOUTHWEST KANSAS

CITY           SKY/WX    TMP DP  RH WIND       PRES   REMARKS
DODGE CITY     CLEAR     50  36  58 S20G29    29.74F
ELKHART          N/A     52  34  50 S14         N/A
GARDEN CITY    CLOUDY    50  34  54 S20G29    29.67F
GREAT BEND     CLOUDY    52  36  54 S22G28    29.75F
PRATT          CLOUDY    46  35  66 S17G25    29.80F
$$

KSZ066>073-081>083-090>101-241100-
SOUTHEAST KANSAS

CITY           SKY/WX    TMP DP  RH WIND       PRES   REMARKS
CHANUTE        CLEAR     40  38  93 SE5       29.95R
COFFEYVILLE    CLEAR     42  41  96 CALM      29.96R
HUTCHINSON     CLEAR     49  38  65 S14       29.84F
MEDICINE LODGE   N/A     48  38  68 SE10      29.83F
NEWTON         CLEAR     47  39  74 S12       29.87S
PARSONS        CLEAR     41  39  93 CALM      29.96R
WICHITA INTL   CLEAR     48  40  73 S14       29.87S
WICHITA JABRA  CLEAR     48  39  71 S12       29.87S
WICHITA MCCONL CLEAR     50  38  62 S14       29.87F
WINFIELD       CLEAR     44  39  82 SE3       29.92F
$$

KSZ007>012-019>026-033>040-048>060-102>105-241100-
NORTHEAST KANSAS

CITY           SKY/WX    TMP DP  RH WIND       PRES   REMARKS
CONCORDIA      CLOUDY    50  38  63 S17       29.77F
EMPORIA        CLEAR     44  41  89 SE10      29.89F
LAWRENCE       CLOUDY    43  40  89 E6        29.92S
MANHATTAN      CLOUDY    51  39  63 S6        29.85F
MARYSVILLE     CLOUDY    50  37  62 S10       29.83F
OLATHE IND     CLOUDY    42  37  82 S7        29.93F
OLATHE EXE     CLOUDY    46  39  76 S3        29.93S
SALINA         CLOUDY    53  39  59 S15       29.81F
TOPEKA BILLARD CLOUDY    46  40  79 SE8       29.89F
TOPEKA FORBES  CLOUDY    47  39  74 SE9       29.88F
$$




USA.gov is the U.S. government's official web portal to all federal, state and local government web resources and services.